Regional Weather Roundup
Issued by NWS Bismarck, ND

Home | Current Version | Previous Version | Text Only | Print | Product List | Glossary On
Versions: 1 2 3 4 5 6 7 8 9 10 11 12 13 14 15 16 17 18 19 20 21 22 23 24 25 26 27 28 29 30 31 32 33 34 35 36 37 38 39 40 41 42 43 44 45 46 47 48 49 50
000
ASUS43 KBIS 201420
RWRBIS

NWR BROADCAST TEXT
NATIONAL WEATHER SERVICE BISMARCK ND
900 AM CDT SUN APR 20 2014

NOTE: "FAIR" INDICATES FEW OR NO CLOUDS BELOW 12,000 FEET WITH NO
SIGNIFICANT WEATHER AND/OR OBSTRUCTIONS TO VISIBILITY.


CITY           SKY/WX    TMP DP  RH WIND       PRES   REMARKS
WILLISTON      CLOUDY    43  35  73 CALM      29.85F
MINOT          SUNNY     42  35  76 CALM      29.90S
MINOT AFB      SUNNY     40  37  91 SE5       29.89F
BISMARCK       SUNNY     46  32  58 SE7       29.97R
DICKINSON      MOSUNNY   50  29  44 S16       29.87S
GARRISON         N/A     43  37  79 SE7       29.92S
HETTINGER ARPT MOSUNNY   46  30  53 SE5       29.93R
JAMESTOWN      SUNNY     46  38  73 S13       29.99F
CARRINGTON     FAIR      46  41  81 S17       29.99S
CROSBY         FAIR      41  37  87 CALM      29.84F
HARVEY         FAIR      41  37  87 S9        29.95F
HAZEN          FAIR      45  37  76 CALM      29.93S
LINTON         FAIR      48  39  71 SE15      29.97S
MANDAN         FAIR      46  37  71 S14       29.96S
OAKES          FAIR      48  39  71 SE3       30.00F
RUGBY          FAIR      45  37  76 SE10G16   29.94F
STANLEY        FAIR      39  39 100 SE6       29.88S
TIOGA          FAIR      39  39 100 SE6       29.89F
WATFORD CITY   FAIR      41  32  70 SE7       29.85S
$$

CITY           SKY/WX    TMP DP  RH WIND       PRES   REMARKS
GRAND FORKS    MOSUNNY   43  35  73 CALM      30.03F
GRAND FORKS AF SUNNY     43  36  77 CALM      30.03F
DEVILS LAKE    SUNNY     39  32  75 SE9       29.99S
FARGO          SUNNY     49  36  61 VRB6      30.02F
CANDO          FAIR      39  34  81 SE9       29.98F
CAVALIER       FAIR      41  34  75 CALM      30.03F
GRAFTON        FAIR      39  34  81 NE3       30.03S
GWINNER        SUNNY     52  37  58 SE10      30.02S
LANGDON        FAIR      39  34  81 E8        29.99F
ROLLA          FAIR      37  37 100 SE9       29.98S
WALHALLA         N/A     41  37  87 CALM      30.03F
$$

CITY           SKY/WX    TMP DP  RH WIND       PRES   REMARKS
ABERDEEN       SUNNY     44  35  70 SW7       30.01S
MOBRIDGE       SUNNY     47  36  65 SE9       29.95S
BUFFALO          N/A     48  30  49 S8        29.85S
RAPID CITY     SUNNY     48  33  56 SE5       29.91S
GLASGOW        PTSUNNY   39  31  72 W9        29.88R
SIDNEY         CLOUDY    43  36  75 S8        29.86S
WOLF POINT     CLOUDY    40  32  73 CALM      29.84R
GLENDIVE       PTSUNNY   46  32  57 SW10      29.89R
MILES CITY     CLOUDY    43  34  70 W9        29.91R
BAKER          PTSUNNY   47  33  58 SE6       29.89R
$$

CITY           SKY/WX    TMP DP  RH WIND       PRES   REMARKS
BILLINGS       CLOUDY    50  29  44 NW8G17    30.00R
GREAT FALLS    SUNNY     44  23  43 SW17      30.03R
REGINA         PTSUNNY   37  34  87 E12       29.85F
ESTEVAN        CLOUDY    37  36  93 E12       29.86F
$$




USA.gov is the U.S. government's official web portal to all federal, state and local government web resources and services.